Date,TemperatureHighF,TemperatureAvgF,TemperatureLowF,DewpointHighF,DewpointAvgF,DewpointLowF,HumidityHigh,HumidityAvg,HumidityLow,PressureMaxIn,PressureMinIn,WindSpeedMaxMPH,WindSpeedAvgMPH,GustSpeedMaxMPH,PrecipitationSumIn
2013-2-1,24,20,17,-100,-100,-100,0,0,100,0.00,40.00,0,-999,0,0.00
2013-2-2,35,25,17,-100,-100,-100,0,0,100,0.00,40.00,0,-999,0,0.00
2013-2-3,37,29,19,-100,-100,-100,0,0,100,0.00,40.00,0,-999,0,0.00
2013-2-4,32,25,20,-100,-100,-100,0,0,100,0.00,40.00,0,-999,0,0.00
2013-2-5,41,28,17,-100,-100,-100,0,0,100,0.00,40.00,0,-999,0,0.00
2013-2-6,37,27,18,-100,-100,-100,0,0,100,0.00,40.00,0,-999,0,0.00
2013-2-7,33,16,6,-100,-100,-100,0,0,100,0.00,40.00,0,-999,0,0.00
2013-2-8,35,19,2,-100,-100,-100,0,0,100,0.00,40.00,0,-999,0,0.00
2013-2-9,24,18,10,-100,-100,-100,0,0,100,0.00,40.00,0,-999,0,0.01
2013-2-10,18,10,2,-100,-100,-100,0,0,100,0.00,40.00,0,-999,0,0.01
2013-2-11,17,8,3,-100,-100,-100,0,0,100,0.00,40.00,0,-999,0,0.01
2013-2-12,19,8,1,-100,-100,-100,0,0,100,0.00,40.00,0,-999,0,0.00
2013-2-13,23,16,10,-100,-100,-100,0,0,100,0.00,40.00,0,-999,0,0.00
2013-2-14,21,17,12,-100,-100,-100,0,0,100,0.00,40.00,0,-999,0,0.00
2013-2-15,15,13,11,-100,-100,-100,0,0,100,0.00,40.00,0,-999,0,0.02
2013-2-16,31,22,15,-100,-100,-100,0,0,100,0.00,40.00,0,-999,0,0.01
2013-2-17,40,28,19,-100,-100,-100,0,0,100,0.00,40.00,0,-999,0,0.00
2013-2-18,18,12,6,-100,-100,-100,0,0,100,0.00,40.00,0,-999,0,0.00
2013-2-19,33,18,-2,-100,-100,-100,0,0,100,0.00,40.00,0,-999,0,0.00
2013-2-20,31,20,9,-100,-100,-100,0,0,100,0.00,40.00,0,-999,0,0.00
2013-2-21,22,17,12,-100,-100,-100,0,0,100,0.00,40.00,0,-999,0,0.01
2013-2-22,22,12,7,-100,-100,-100,0,0,100,0.00,40.00,0,-999,0,0.01
2013-2-23,31,18,6,-100,-100,-100,0,0,100,0.00,40.00,0,-999,0,0.00
2013-2-24,18,12,7,-100,-100,-100,0,0,100,0.00,40.00,0,-999,0,0.02
2013-2-25,24,20,15,-100,-100,-100,0,0,100,0.00,40.00,0,-999,0,0.00
2013-2-26,18,12,7,-100,-100,-100,0,0,100,0.00,40.00,0,-999,0,0.00
2013-2-27,20,10,5,-100,-100,-100,0,0,100,0.00,40.00,0,-999,0,0.01
2013-2-28,22,12,4,-100,-100,-100,0,0,100,0.00,40.00,0,-999,0,0.00